When you browse on this site, cookies collect data to enhance your experience and personalize the content and advertising you see.
Visit our Privacy Policy to learn more. By continuing to use the site, you agree to this use of cookies and data.
  • In United Kingdom
  • List of Countries
  • For 7 days
  • Water Temperature
  • Weather Map
  • Weather Widgets
  • user-avatar
    Login

    Hourly Weather São Luís

    Today, 24 February, Monday

    Time Temperature Precipitation Wind Pressure Humidity
    00:00 +27°C° 0 mm 3 mps 758 mmHg 92%
    01:00 +27°C° 0.4 mm 3 mps 758 mmHg 92%
    02:00 +27°C° 0.4 mm 3 mps 757 mmHg 92%
    03:00 +27°C° 0.4 mm 3 mps 757 mmHg 92%
    04:00 +27°C° 0.5 mm 3 mps 757 mmHg 92%
    05:00 +27°C° 0.5 mm 3 mps 757 mmHg 91%
    06:00 +27°C° 0.5 mm 3 mps 758 mmHg 90%
    07:00 +28°C° 0.5 mm 3 mps 758 mmHg 88%
    08:00 +29°C° 0.5 mm 3 mps 758 mmHg 85%
    09:00 +30°C° 0.5 mm 4 mps 759 mmHg 83%
    10:00 +30°C° 0.5 mm 4 mps 758 mmHg 81%
    11:00 +32°C° 0.5 mm 4 mps 758 mmHg 80%
    12:00 +32°C° 0.5 mm 5 mps 758 mmHg 79%
    13:00 +32°C° 0.4 mm 5 mps 757 mmHg 79%
    14:00 +32°C° 0.4 mm 5 mps 757 mmHg 79%
    15:00 +32°C° 0.4 mm 5 mps 756 mmHg 79%
    16:00 +30°C° 0.1 mm 5 mps 756 mmHg 82%
    17:00 +29°C° 0.1 mm 5 mps 756 mmHg 84%
    18:00 +29°C° 0.1 mm 5 mps 756 mmHg 87%
    19:00 +28°C° 0.1 mm 5 mps 757 mmHg 89%
    20:00 +28°C° 0.1 mm 5 mps 757 mmHg 90%
    21:00 +28°C° 0.1 mm 5 mps 757 mmHg 91%
    22:00 +28°C° 0.1 mm 5 mps 758 mmHg 92%
    23:00 +27°C° 0.1 mm 5 mps 758 mmHg 92%

    Tomorrow, 25 February, Tuesday

    Time Temperature Precipitation Wind Pressure Humidity
    00:00 +27°C° 0.1 mm 5 mps 758 mmHg 92%
    01:00 +27°C° 0.3 mm 4 mps 757 mmHg 92%
    02:00 +27°C° 0.3 mm 4 mps 757 mmHg 92%
    03:00 +27°C° 0.3 mm 4 mps 756 mmHg 92%
    04:00 +27°C° 0.8 mm 3 mps 757 mmHg 92%
    05:00 +27°C° 0.8 mm 3 mps 757 mmHg 92%
    06:00 +27°C° 0.8 mm 3 mps 757 mmHg 92%
    07:00 +28°C° 1.8 mm 3 mps 757 mmHg 89%
    08:00 +29°C° 1.8 mm 3 mps 758 mmHg 86%
    09:00 +30°C° 1.8 mm 4 mps 758 mmHg 83%
    10:00 +30°C° 0.9 mm 4 mps 758 mmHg 83%
    11:00 +30°C° 0.9 mm 4 mps 758 mmHg 84%
    12:00 +30°C° 0.9 mm 4 mps 757 mmHg 84%
    13:00 +30°C° 0.3 mm 4 mps 757 mmHg 85%
    14:00 +30°C° 0.3 mm 4 mps 756 mmHg 85%
    15:00 +30°C° 0.3 mm 4 mps 755 mmHg 85%
    16:00 +30°C° 0.2 mm 4 mps 755 mmHg 86%
    17:00 +29°C° 0.2 mm 4 mps 755 mmHg 87%
    18:00 +29°C° 0.2 mm 4 mps 755 mmHg 89%
    19:00 +28°C° 0.9 mm 4 mps 756 mmHg 90%
    20:00 +28°C° 0.9 mm 4 mps 757 mmHg 91%
    21:00 +28°C° 0.9 mm 4 mps 757 mmHg 92%
    22:00 +27°C° 3 mm 4 mps 757 mmHg 92%
    23:00 +27°C° 3 mm 4 mps 757 mmHg 92%

    Day after tomorrow, 26 February, Wednesday

    Time Temperature Precipitation Wind Pressure Humidity
    00:00 +27°C° 3 mm 4 mps 757 mmHg 92%
    01:00 +27°C° 1.3 mm 4 mps 757 mmHg 93%
    02:00 +26°C° 1.3 mm 3 mps 756 mmHg 93%
    03:00 +26°C° 1.3 mm 3 mps 756 mmHg 93%
    04:00 +26°C° 0.3 mm 3 mps 756 mmHg 93%
    05:00 +26°C° 0.3 mm 2 mps 756 mmHg 93%
    06:00 +26°C° 0.3 mm 2 mps 756 mmHg 93%
    07:00 +27°C° 0 mm 1 mps 756 mmHg 91%
    08:00 +28°C° 0 mm 1 mps 757 mmHg 88%
    09:00 +26°C° 0 mm 0 mps 758 mmHg 85%
    10:00 +27°C° 0.3 mm 0 mps 757 mmHg 81%
    11:00 +30°C° 0.3 mm 1 mps 757 mmHg 76%
    12:00 +31°C° 0.3 mm 1 mps 757 mmHg 72%
    13:00 +31°C° 0.6 mm 1 mps 756 mmHg 74%
    14:00 +31°C° 0.6 mm 2 mps 756 mmHg 77%
    15:00 +30°C° 0.6 mm 3 mps 755 mmHg 80%
    16:00 +30°C° 0.4 mm 3 mps 755 mmHg 83%
    17:00 +29°C° 0.4 mm 3 mps 755 mmHg 87%
    18:00 +28°C° 0.4 mm 4 mps 755 mmHg 90%
    19:00 +28°C° 0 mm 4 mps 756 mmHg 91%
    20:00 +27°C° 0 mm 4 mps 756 mmHg 92%
    21:00 +27°C° 0 mm 4 mps 757 mmHg 92%
    22:00 +27°C° 0.1 mm 3 mps 757 mmHg 93%
    23:00 +27°C° 0.1 mm 3 mps 757 mmHg 93%

    27 February, Thursday

    Time Temperature Precipitation Wind Pressure Humidity
    00:00 +27°C° 0.1 mm 3 mps 757 mmHg 94%
    01:00 +27°C° 0.5 mm 3 mps 757 mmHg 94%
    02:00 +27°C° 0.5 mm 2 mps 756 mmHg 94%
    03:00 +26°C° 0.5 mm 2 mps 756 mmHg 94%
    04:00 +26°C° 0.6 mm 2 mps 756 mmHg 94%
    05:00 +26°C° 0.6 mm 2 mps 756 mmHg 95%
    06:00 +26°C° 0.6 mm 1 mps 756 mmHg 95%
    07:00 +27°C° 0.8 mm 1 mps 757 mmHg 92%
    08:00 +28°C° 0.8 mm 1 mps 758 mmHg 90%
    09:00 +29°C° 0.8 mm 1 mps 758 mmHg 88%
    10:00 +30°C° 0.5 mm 1 mps 758 mmHg 83%
    11:00 +31°C° 0.5 mm 1 mps 757 mmHg 79%
    12:00 +31°C° 0.5 mm 2 mps 757 mmHg 75%
    13:00 +31°C° 0.2 mm 2 mps 756 mmHg 73%
    14:00 +33°C° 0.2 mm 3 mps 756 mmHg 72%
    15:00 +33°C° 0.2 mm 4 mps 755 mmHg 70%
    16:00 +32°C° 0 mm 4 mps 755 mmHg 74%
    17:00 +30°C° 0 mm 4 mps 755 mmHg 78%
    18:00 +29°C° 0 mm 4 mps 756 mmHg 82%
    19:00 +29°C° 0 mm 4 mps 756 mmHg 84%
    20:00 +28°C° 0 mm 4 mps 757 mmHg 86%
    21:00 +28°C° 0 mm 4 mps 757 mmHg 88%
    22:00 +28°C° 0 mm 4 mps 757 mmHg 89%
    23:00 +27°C° 0 mm 4 mps 758 mmHg 90%

    28 February, Friday

    Time Temperature Precipitation Wind Pressure Humidity
    00:00 +27°C° 0 mm 4 mps 758 mmHg 90%
    01:00 +27°C° 0 mm 3 mps 757 mmHg 91%
    02:00 +27°C° 0 mm 3 mps 757 mmHg 92%
    03:00 +27°C° 0 mm 3 mps 757 mmHg 93%
    04:00 +27°C° 0 mm 2 mps 757 mmHg 92%
    05:00 +27°C° 0 mm 2 mps 757 mmHg 92%
    06:00 +27°C° 0 mm 2 mps 757 mmHg 91%
    07:00 +28°C° 0 mm 2 mps 758 mmHg 86%
    08:00 +30°C° 0 mm 2 mps 758 mmHg 80%
    09:00 +31°C° 0 mm 2 mps 759 mmHg 75%
    10:00 +31°C° 0.3 mm 2 mps 758 mmHg 74%
    11:00 +31°C° 0.3 mm 2 mps 758 mmHg 74%
    12:00 +33°C° 0.3 mm 3 mps 758 mmHg 73%
    13:00 +31°C° 0.6 mm 3 mps 757 mmHg 76%
    14:00 +32°C° 0.6 mm 4 mps 756 mmHg 78%
    15:00 +32°C° 0.6 mm 4 mps 755 mmHg 81%
    16:00 +30°C° 0.2 mm 4 mps 755 mmHg 83%
    17:00 +30°C° 0.2 mm 4 mps 756 mmHg 86%
    18:00 +29°C° 0.2 mm 4 mps 756 mmHg 88%
    19:00 +29°C° 0.2 mm 4 mps 756 mmHg 89%
    20:00 +28°C° 0.2 mm 4 mps 757 mmHg 90%
    21:00 +28°C° 0.2 mm 4 mps 757 mmHg 91%
    22:00 +28°C° 0.3 mm 4 mps 758 mmHg 91%
    23:00 +28°C° 0.3 mm 4 mps 758 mmHg 92%

    29 February, Saturday

    Time Temperature Precipitation Wind Pressure Humidity
    00:00 +28°C° 0.3 mm 4 mps 758 mmHg 92%
    01:00 +27°C° 1.7 mm 3 mps 757 mmHg 92%
    02:00 +27°C° 1.7 mm 3 mps 757 mmHg 92%
    03:00 +27°C° 1.7 mm 3 mps 757 mmHg 93%
    04:00 +27°C° 1.5 mm 3 mps 757 mmHg 92%
    05:00 +27°C° 1.5 mm 3 mps 757 mmHg 92%
    06:00 +27°C° 1.5 mm 3 mps 757 mmHg 91%
    07:00 +28°C° 1.6 mm 3 mps 758 mmHg 89%
    08:00 +29°C° 1.6 mm 3 mps 758 mmHg 87%
    09:00 +30°C° 1.6 mm 3 mps 759 mmHg 85%
    10:00 +30°C° 1.6 mm 4 mps 759 mmHg 85%
    11:00 +30°C° 1.6 mm 4 mps 758 mmHg 85%
    12:00 +30°C° 1.6 mm 4 mps 758 mmHg 84%
    13:00 +30°C° 0.9 mm 5 mps 757 mmHg 84%
    14:00 +30°C° 0.9 mm 5 mps 756 mmHg 85%
    15:00 +30°C° 0.9 mm 5 mps 755 mmHg 85%
    16:00 +30°C° 0.1 mm 5 mps 756 mmHg 86%
    17:00 +29°C° 0.1 mm 5 mps 756 mmHg 88%
    18:00 +28°C° 0.1 mm 4 mps 756 mmHg 89%
    19:00 +28°C° 0 mm 4 mps 757 mmHg 90%
    20:00 +28°C° 0 mm 4 mps 757 mmHg 90%
    21:00 +28°C° 0 mm 4 mps 758 mmHg 91%
    22:00 +28°C° 0.1 mm 3 mps 758 mmHg 91%
    23:00 +28°C° 0.1 mm 3 mps 758 mmHg 91%
    Show more